User: anonymous   Login
Location: Unspecified
(0.0000°N, 0.0000°E)
Time: 21:41:16
(UTC+00:00)
Language:

FLTSATCOM F7 - Orbit

View from above orbital plane
View from above orbital plane
View from above satellite
View from above satellite

Ground track
Ground track

The orbit data is extracted from the following two-line orbital elements,

1 17181U 86096A   24150.97549171 -.00000137  00000-0  00000-0 0  9994
2 17181  13.3156 344.8975 0037683 314.1891 230.6463  0.98927741144564
Epoch (UTC): 29 May 2024 23:24:42
Eccentricity: 0.0037683
inclination: 13.3156°
perigee height: 36007 km
apogee height: 36327 km
right ascension of ascending node: 344.8975°
argument of perigee: 314.1891°
revolutions per day: 0.98927741
mean anomaly at epoch: 230.6463°
orbit number at epoch: 14456

The dashed part of the orbit path shows where the satellite is in the earth's shadow,  

DLR